Tracking 28790 objects as of 19-Apr-2024
HD Live streaming from Space Station
objects crossing your sky now

DELTA 1 DEB

Track DELTA 1 DEB now!
10-day predictions


NORAD ID: 12230
Int'l Code: 1978-026BX
Perigee: 600.7 km
Apogee: 682.4 km
Inclination: 98.0 °
Period: 97.4 minutes
Semi major axis: 7012 km
RCS: 0.0615 m2 (small)
Launch date: March 5, 1978
Source: United States (US)
Launch site: AIR FORCE WESTERN TEST RANGE (AFWTR)

Note: This is SATELLITE DEBRIS
Your satellite tracking list
Your tracking list is empty




NASA's NSSDC Master Catalog

Two Line Element Set (TLE):
1 12230U 78026BX  24109.89374427  .00016476  00000-0  22020-2 0  9993
2 12230  97.9511  88.2204 0058222 158.1352 202.2363 14.78391905263297
Source of the keplerian elements: AFSPC